Terminal Aerodrome Forecast
Issued by NWS Pocatello, ID

Home | Current Version | Previous Version | Text Only | Print | Product List | Glossary On
Versions: 1 2 3 4 5 6 7 8 9 10 11 12 13 14
722
FTUS45 KPIH 301120
TAFBYI
TAF
KBYI 301120Z 3012/0112 21010KT P6SM SCT080 BKN130
     FM301800 27015KT P6SM BKN070 BKN100 OVC120
     FM302100 27015G25KT P6SM FEW050 BKN080 BKN180
     FM010100 24015KT P6SM SCT070 SCT130=

USA.gov is the U.S. government's official web portal to all federal, state and local government web resources and services.